Location: Pasadena, ca
(34.1243°N, 118.1037°W)
Time: 11:54:03
(UTC-07:00)

Tiangong 1 - Pass Details

Date: 14 October 2017
Orbit: 292 x 319 km, 42.8° (Epoch: 23 October)

Event Time Altitude Azimuth Distance (km) Brightness Sun altitude
Rises 20:06:57 0° 299° (WNW) 2,035 5.8 -23.1°
Reaches altitude 10° 20:08:57 10° 301° (WNW) 1,199 4.4 -23.5°
Enters shadow 20:09:47 18° 302° (WNW) 858 3.5 -23.7°
